AirNav   Pilot Hours Calculator
 
 1186 users online  

MO05 Truman Medical Center West Heliport
Kansas City, Missouri, USA

GOING TO KANSAS CITY?


FAA INFORMATION EFFECTIVE 31 DECEMBER 2020

Location

FAA Identifier: MO05
Lat/Long: 39-05-03.0000N 094-34-27.0000W
39-05.050000N 094-34.450000W
39.0841667,-94.5741667
(estimated)
Elevation: 983 ft. / 300 m (estimated)
Variation: 04E (1995)
Time zone: UTC -6 (UTC -5 during Daylight Saving Time)
Zip code: 64108

Heliport Operations

Heliport use: Private use, MEDICAL USE.
Activation date: 01/2000
Control tower: no
ARTCC: KANSAS CITY CENTER
FSS: COLUMBIA FLIGHT SERVICE STATION
Attendance: UNATNDD
Wind indicator: yes
Segmented circle: no
Lights: FOR PERIMETER LGTS CALL 816-373-4415.
Beacon: white-green-yellow (heliport)
FOR ROTG BCN CALL 816-373-4415.

Heliport Communications

WX ASOS at MKC (2.5 nm N): PHONE 816-329-2843
WX ASOS at LXT (12 nm SE): 124.175 (816-347-9807)
WX ASOS at MCI (14 nm NW): PHONE 816-329-2808
WX ASOS at OJC (16 nm SW): 119.35 (913-780-6969)
WX AWOS-3 at GPH (19 nm NE): 120.275 (816-407-3399)

Nearby radio navigation aids

VOR radial/distance  VOR name  Freq  Var
MCIr143/14.2KANSAS CITY VORTAC113.2505E
ANXr261/20.7NAPOLEON VORTAC114.0007E

Heliport Services

Runway Information

Helipad H1

Dimensions: 50 x 50 ft. / 15 x 15 m
Surface: concrete
Runway edge lights: PERI
Latitude: 39-05.050000N
Longitude: 094-34.450000W
Elevation: 983.0 ft.
Traffic pattern: leftleft

Heliport Ownership and Management from official FAA records

Ownership: Privately-owned
Owner: TRUMAN MEDICAL CENTER WEST
7900 LEE'S SUMMIT RD
KANSAS CITY, MO 64139
Phone 816-373-4415
EXT. 1292.
Manager: MICHAEL SULLIVAN
2301 HOLMES ST.
KANSAS CITY, MO 64108
Phone 816-404-2620
ASSOC. ADMIN./FACILITIES

Additional Remarks

OWNER DESIRES HELIPORT NOT BE CHARTED.
FOR CD CTC KANSAS CITY APCH AT 816-329-2710.

Instrument Procedures

There are no published instrument procedures at MO05.

Some nearby airports with instrument procedures:

KMKC - Charles B Wheeler Downtown Airport (2 nm N)
KLXT - Lee's Summit Municipal Airport (12 nm SE)
KMCI - Kansas City International Airport (14 nm NW)
KOJC - Johnson County Exec Airport (16 nm SW)
3GV - East Kansas City Airport (17 nm E)
KGPH - Midwest NTL Air Center Airport (19 nm NE)
 
Loc | Ops | Rwys | IFR | FBO | Links
Com | Nav | Svcs | Stats | Notes
Area around MO05 (Truman Medical Center West Heliport)
 
Road maps at: MapQuest Bing Google
 
Aerial photo
No photo
 
Sectional chart

 
Airport distance calculator
Flying to Truman Medical Center West Heliport? Find the distance to fly.

From to MO05

Sunrise and sunset
Times for 16-Jan-2021
 Local
(UTC-6)
 Zulu
(UTC)
Morning civil twilight07:0713:07
Sunrise07:3713:37
Sunset17:2023:20
Evening civil twilight17:4923:49

Current date and time
Zulu (UTC)  16-Jan-2021 18:11:55
Local (UTC-6)  16-Jan-2021 12:11:55
 
METAR
KMKC 
2nm NW 
161754Z 28008KT 10SM OVC019 00/M04 A2994 RMK AO2 SLP143 T00001039 10000 21011 50001
KLXT 
12nm SE 
161753Z AUTO 27009KT 10SM BKN017 OVC025 M01/M03 A2993 RMK AO2 SLP143 T10061033 11006 21011 50002
KMCI 
15nm NW 
161753Z 28010KT 10SM BKN016 OVC026 00/M04 A2993 RMK AO2 SLP142 T00001039 10000 21011 50003
KOJC 
16nm SW 
161753Z 27006KT 10SM SCT017 OVC028 M01/M03 A2992 RMK AO2 SLP143 T10061033 11006 21017 58000
KGPH 
19nm NE 
161755Z AUTO 29008KT 10SM OVC018 00/M03 A2993 RMK AO2
TAF
KMKC 
2nm NW 
161121Z 1612/1712 32010KT P6SM SCT015 BKN025 TEMPO 1612/1615 BKN015 FM161500 30008KT P6SM BKN015 FM162100 30008KT P6SM BKN035 FM170300 27006KT P6SM BKN100
KMCI 
15nm NW 
161121Z 1612/1712 34010KT P6SM SCT015 BKN025 TEMPO 1612/1615 BKN015 FM161500 30010KT P6SM BKN015 FM162100 30010KT P6SM BKN035 FM170300 27008KT P6SM BKN100
NOTAMs
Click for the latest NOTAMs
NOTAMs are issued by the DoD/FAA and will open in a separate window not controlled by AirNav.

 

 
 

Would you like to see your business listed on this page?

 If your business provides an interesting product or service to pilots, flight crews, aircraft, or users of the Truman Medical Center West Heliport, you should consider listing it here.  To start the listing process, click on the button below
 
Add a business
 

Other Pages about Truman Medical Center West Heliport

Update a link
 
Copyright © AirNav, LLC. All rights reserved. Privacy Policy  Contact